Home > Weather > Seoul > Past weeks

Flag for South Korea Weather for the Past 2 Weeks in Seoul, South Korea

Now
41 °F

Passing clouds.


Feels Like: 34 °F
Forecast: 27 / 41 °F
Wind: 13 mph from West

Location: Seoul / Kimp'O International Airport

Current Time: Feb 8, 2016 at 10:04:58 PM

Latest Report: Feb 8, 2016 at 9:00 PM


Visibility: 4 mi

Pressure: 29.89 "Hg

Humidity: 57%

Dew point: 27 °F

Location of SeoulLocation

Historic Weather in Seoul — Graph

°F

Seoul Temperature Yesterday

Maximum temperature yesterday: 37 °F (at 2:00 PM)
Minimum temperature yesterday: 10 °F (at 6:00 AM)
Average temperature yesterday: 24 °F

High & Low Weather Summary for the Past Weeks

 TemperatureHumidityPressure
High45 °F (Feb 8, 2:00 PM)86% (Jan 28, 4:00 AM)30.45 "Hg (Jan 28, 4:00 AM)
Low3 °F (Jan 25, 4:00 AM)12% (Feb 5, 3:00 PM)29.86 "Hg (Feb 8, 8:00 PM)
Average26 °F48%30.32 "Hg
* Reported Jan 24 9:00 PM — Feb 8 9:00 PM, Seoul, Weather by CustomWeather, © 2016

Note: Actual official high and low records may vary slightly from our data, if they occured in-between our weather recording intervals... More about our weather records

Advertising

Seoul Weather History for the Previous 24 Hours

 ConditionsComfort  
Time TempWeatherWind HumidityBarometerVisibility
9:00 PM
Mon, Feb 8
41 °FPassing clouds.13 mph57%29.89 "Hg4 mi
8:00 PM41 °FPartly cloudy.14 mph57%29.86 "Hg4 mi
7:00 PM41 °FPartly cloudy.10 mph53%29.89 "Hg3 mi
6:00 PM43 °FBroken clouds.10 mph49%29.89 "Hg3 mi
5:00 PM43 °FBroken clouds.10 mph53%29.92 "Hg3 mi
4:00 PM45 °FBroken clouds.15 mph34%29.92 "Hg4 mi
3:00 PM45 °FBroken clouds.17 mph42%29.92 "Hg4 mi
2:00 PM45 °FBroken clouds.15 mph46%29.95 "Hg4 mi
1:00 PM43 °FBroken clouds.14 mph49%29.98 "Hg6 mi
12:00 PM41 °FBroken clouds.15 mph45%30.01 "HgN/A
11:00 AM37 °FBroken clouds.10 mph48%30.04 "HgN/A
10:00 AM34 °FBroken clouds.9 mph56%30.04 "HgN/A
9:00 AM30 °FScattered clouds.7 mph64%30.04 "HgN/A
8:00 AM27 °FScattered clouds.9 mph74%30.07 "Hg5 mi
7:00 AM18 °FPassing clouds.8 mph73%30.07 "Hg5 mi
6:00 AM19 °FPassing clouds.7 mph68%30.07 "HgN/A
5:00 AM19 °FPassing clouds.5 mph63%30.09 "HgN/A
4:00 AM25 °FPassing clouds.6 mph63%30.09 "HgN/A
3:00 AM23 °FPassing clouds.6 mph68%30.12 "HgN/A
2:00 AM23 °FPassing clouds.7 mph63%30.12 "HgN/A
1:00 AM21 °FPassing clouds.1 mph63%30.15 "HgN/A
12:00 AM27 °FPassing clouds.1 mph64%30.15 "HgN/A
11:00 PM
Sun, Feb 7
23 °FPassing clouds.2 mph68%30.15 "HgN/A
10:00 PM21 °FPassing clouds.No wind58%30.15 "HgN/A
Weather by CustomWeather, © 2016

See weather overviewHow to use our weather pages